Regional Weather Roundup
Issued by NWS

Home | Current Version | Previous Version | Graphics & Text | Print | Product List | Glossary Off
Versions: 1 2 3 4 5 6 7 8 9 10 11 12 13 14 15 16 17 18 19 20 21 22 23 24 25 26 27 28 29 30 31 32 33 34 35 36 37 38 39 40 41 42 43 44 45 46 47 48 49 50

000
ASUS43 KIND 312109
RWRIN

WEATHER ROUNDUP FOR INDIANA
NATIONAL WEATHER SERVICE INDIANAPOLIS IN
500 PM EDT TUE MAY 31 2016

NOTE: "FAIR" INDICATES FEW OR NO CLOUDS BELOW 12,000 FEET WITH NO
SIGNIFICANT WEATHER AND/OR OBSTRUCTIONS TO VISIBILITY.

* - STATION DOES NOT REPORT WEATHER SUCH AS PRECIPITATION OR FOG.

+ - STATION NOT QUALITY CONTROLLED BY THE NATIONAL WEATHER SERVICE.
    USE DATA WITH CAUTION...ESPECIALLY DEWPOINT AND RELATIVE
    HUMIDITY OBSERVATIONS.

INZ001>003-010>013-019-020-312200-
NORTHWEST INDIANA

CITY           SKY/WX    TMP DP  RH WIND       PRES   REMARKS
GARY /AIRPORT/ CLOUDY    73  68  83 NW5       29.98R
KNOX *+        PTSUNNY   73  46  38 NW8       29.96R
LA PORTE +     LGT RAIN  70  64  81 W7        29.99S
MICHIGAN CITY+ HVY RAIN  73  59  60 S13G21    29.98R
MONTICELLO +   CLOUDY    73  55  51 NE8       29.93F
RENSSELAER +   CLOUDY    77  63  61 NE14      29.95R

$$

LMZ046-743>745-312200-
SOUTHERN LAKE MICHIGAN

STATION/POSITION TIME  TEMP    WIND        PRES    WAVE
                       AIR SEA DIR/SP/G            HT
                 (UTC) (F)     (DEG/KT/KT) (MB)    (FT)
BURNS HARBOR     2000   73      70/ 11/ 17 1014.2F
MICHIGAN CITY    2000   79      30/ 12/ 13   N/A
5NW MICH CITY    2100   71 63  200/ 16/ 19   N/A     1

$$

INZ004-005-014>016-021>024-312200-
NORTH CENTRAL INDIANA

CITY           SKY/WX    TMP DP  RH WIND       PRES   REMARKS
GOSHEN         SUNNY     85  50  29 E13       29.96F
LOGANSPORT +   LGT RAIN  70  63  78 N8        29.96F
ROCHESTER +    CLOUDY    86  55  35 SW10      29.96R
SOUTH BEND     CLOUDY    85  53  33 E9        29.96F
WARSAW +       SUNNY     86  55  35 E8G17     29.96F

$$

INZ006>009-017-018-025>027-312200-
NORTHEAST INDIANA

CITY           SKY/WX    TMP DP  RH WIND       PRES   REMARKS
ANGOLA *+        N/A     86  48  26 E8        30.00F
AUBURN +       SUNNY     86  45  23 NE8       29.99F
FORT WAYNE     MOSUNNY   85  55  35 NE9       29.97F
HUNTINGTON +   MOSUNNY  N/A N/A N/A NE7       29.95F

$$

INZ028-029-035-036-043>045-051>053-312200-
WEST CENTRAL INDIANA

CITY           SKY/WX    TMP DP  RH WIND       PRES   REMARKS
CRAWFORDSVL +  SUNNY     86  53  32 S10G16    29.94F
GREENCASTLE +  SUNNY     84  63  48 S9        29.95F
LAFAYETTE      CLOUDY    88  53  30 SW8       29.91F
TERRE HAUTE    PTSUNNY   88  55  32 S12       29.92F

$$

INZ030>032-037>040-046>048-054>057-064-065-312200-
CENTRAL INDIANA

CITY           SKY/WX    TMP DP  RH WIND       PRES   REMARKS
CP ATTERBURY + PTSUNNY   86  59  39 SW5       29.95F
COLUMBUS       SUNNY     84  54  34 SW6       29.95F
FISHERS *+     CLOUDY    81  61  50 SE15G21   29.95S
FRANKFORT +      N/A     87  28  11 SW12      29.95F
GREENWOOD *+   PTSUNNY   86  54  32 N3        29.96F
INDIANAPOLIS   MOSUNNY   85  57  38 S9        29.94F
-EAGLE CREEK   SUNNY     86  54  33 S6        29.94F
KOKOMO *+      CLOUDY    84  57  39 NW7       29.93F
MARION +       MOSUNNY   86  52  30 E10       29.95F HAZE
SHELBYVILLE    CLOUDY    75  63  66 NE14      29.96R
ZIONSVILLE +   SUNNY     84  56  37 S8        29.95F

$$

INZ033-034-041-042-049-050-058-059-312200-
EAST CENTRAL INDIANA

CITY           SKY/WX    TMP DP  RH WIND       PRES   REMARKS
MUNCIE         MOSUNNY   90  51  26 E6        29.95F

$$

INZ060-061-067>069-081>083-085>088-312200-
SOUTHWEST INDIANA

CITY           SKY/WX    TMP DP  RH WIND       PRES   REMARKS
EVANSVILLE     CLOUDY    85  58  39 SE8       29.93F
HUNTINGBURG *+ MOSUNNY   84  57  39 S5        29.93F
WASHINGTON +   SUNNY     87  61  40 S8        29.92F

$$

INZ062-063-066-070>080-084-089>092-312200-
SOUTH CENTRAL AND SOUTHEAST INDIANA

CITY           SKY/WX    TMP DP  RH WIND       PRES   REMARKS
BEDFORD +      MOSUNNY   84  66  54 SE7       29.94F
BLOOMINGTON    SUNNY     84  59  42 S10       29.95F
MADISON *+     MOSUNNY   88  48  25 CALM      29.98F
NORTH VERNON + PTSUNNY   86  64  48 CALM      29.96F
SEYMOUR +      PTSUNNY   90  57  33 S9        29.94F

$$





USA.gov is the U.S. government's official web portal to all federal, state and local government web resources and services.